TimeCST,TemperatureF,Dew PointF,Humidity,Sea Level PressureIn,VisibilityMPH,Wind Direction,Wind SpeedMPH,Gust SpeedMPH,PrecipitationIn,Events,Conditions,WindDirDegrees,DateUTC
12:12 AM,24.4,20.1,84,29.98,-9999.0,NNW,19.6,25.3,N/A,,Overcast,340,2013-12-29 06:12:00
12:32 AM,22.6,18.1,83,30.00,10.0,North,17.3,26.5,N/A,,Overcast,350,2013-12-29 06:32:00
12:52 AM,22.1,17.1,81,30.01,10.0,North,19.6,25.3,N/A,,Overcast,360,2013-12-29 06:52:00
1:12 AM,20.3,14.9,80,30.03,10.0,NNW,17.3,26.5,N/A,,Overcast,340,2013-12-29 07:12:00
1:32 AM,19.4,12.9,76,30.04,10.0,NNW,20.7,26.5,N/A,,Overcast,340,2013-12-29 07:32:00
1:52 AM,19.0,12.2,75,30.06,10.0,NNW,16.1,25.3,N/A,,Overcast,330,2013-12-29 07:52:00
2:12 AM,17.6,11.1,76,30.07,10.0,North,18.4,25.3,N/A,,Overcast,350,2013-12-29 08:12:00
2:32 AM,16.7,10.0,75,30.08,10.0,NNW,21.9,27.6,N/A,,Overcast,340,2013-12-29 08:32:00
2:52 AM,16.3,9.3,74,30.10,10.0,NNW,18.4,24.2,N/A,,Overcast,340,2013-12-29 08:52:00
3:12 AM,15.8,8.4,73,30.10,10.0,NNW,16.1,27.6,N/A,,Overcast,340,2013-12-29 09:12:00
3:32 AM,15.4,7.5,71,30.11,10.0,NNW,16.1,20.7,N/A,,Overcast,340,2013-12-29 09:32:00
3:52 AM,14.4,6.4,71,30.11,10.0,NNW,15.0,23.0,N/A,,Overcast,340,2013-12-29 09:52:00
4:12 AM,13.5,5.5,71,30.12,10.0,NNW,17.3,24.2,N/A,,Overcast,330,2013-12-29 10:12:00
4:32 AM,12.4,5.0,72,30.13,10.0,NNW,17.3,26.5,N/A,,Overcast,340,2013-12-29 10:32:00
4:52 AM,12.2,4.6,72,30.14,10.0,North,13.8,25.3,N/A,,Overcast,350,2013-12-29 10:52:00
5:12 AM,11.8,3.9,71,30.15,10.0,NW,12.7,21.9,N/A,,Overcast,320,2013-12-29 11:12:00
5:32 AM,10.2,2.3,70,30.17,10.0,NNW,15.0,24.2,N/A,,Overcast,330,2013-12-29 11:32:00
5:52 AM,9.5,1.8,71,30.18,10.0,NNW,12.7,24.2,N/A,,Overcast,340,2013-12-29 11:52:00
6:12 AM,8.6,0.5,70,30.20,10.0,NNW,15.0,23.0,N/A,,Overcast,340,2013-12-29 12:12:00
6:32 AM,7.7,-0.6,69,30.21,10.0,NNW,16.1,21.9,N/A,,Overcast,330,2013-12-29 12:32:00
6:52 AM,7.3,-1.3,68,30.22,10.0,NNW,16.1,21.9,N/A,,Overcast,340,2013-12-29 12:52:00
7:12 AM,6.1,-2.2,69,30.24,10.0,NNW,13.8,20.7,N/A,,Overcast,340,2013-12-29 13:12:00
7:32 AM,4.8,-3.8,68,30.25,10.0,NNW,16.1,-,N/A,,Mostly Cloudy,330,2013-12-29 13:32:00
7:52 AM,4.1,-4.2,69,30.25,10.0,North,10.4,19.6,N/A,,Scattered Clouds,350,2013-12-29 13:52:00
8:12 AM,3.6,-4.9,68,30.25,10.0,NNW,10.4,-,N/A,,Clear,340,2013-12-29 14:12:00
8:32 AM,3.0,-5.6,67,30.26,10.0,NNW,8.1,19.6,N/A,,Clear,330,2013-12-29 14:32:00
8:52 AM,2.7,-6.0,67,30.27,10.0,NNW,9.2,18.4,N/A,,Clear,330,2013-12-29 14:52:00
9:12 AM,2.1,-6.7,67,30.27,10.0,NNW,9.2,19.6,N/A,,Scattered Clouds,330,2013-12-29 15:12:00
9:32 AM,2.1,-7.4,64,30.28,10.0,NNW,9.2,-,N/A,,Scattered Clouds,330,2013-12-29 15:32:00
9:52 AM,1.8,-8.1,63,30.29,10.0,NNW,11.5,-,N/A,,Scattered Clouds,330,2013-12-29 15:52:00
10:12 AM,1.4,-9.0,62,30.30,10.0,NNW,12.7,18.4,N/A,,Clear,330,2013-12-29 16:12:00
10:32 AM,1.2,-10.1,59,30.30,10.0,NNW,11.5,20.7,N/A,,Clear,330,2013-12-29 16:32:00
10:52 AM,1.0,-11.4,56,30.30,10.0,NNW,13.8,19.6,N/A,,Scattered Clouds,340,2013-12-29 16:52:00
11:12 AM,1.4,-11.7,54,30.30,10.0,NNW,12.7,18.4,N/A,,Mostly Cloudy,340,2013-12-29 17:12:00
11:32 AM,1.8,-11.9,53,30.30,-9999.0,NW,12.7,16.1,N/A,,Overcast,320,2013-12-29 17:32:00
11:52 AM,1.4,-13.0,51,30.29,-9999.0,NW,11.5,-,N/A,,Overcast,310,2013-12-29 17:52:00
12:12 PM,1.4,-13.5,50,30.29,-9999.0,NNW,11.5,16.1,N/A,,Overcast,340,2013-12-29 18:12:00
12:32 PM,1.8,-13.7,48,30.28,-9999.0,NW,12.7,16.1,N/A,,Overcast,320,2013-12-29 18:32:00
12:52 PM,1.9,-13.9,48,30.28,-9999.0,NW,13.8,-,N/A,,Scattered Clouds,320,2013-12-29 18:52:00
1:12 PM,2.3,-14.4,46,30.28,-9999.0,NNW,13.8,20.7,N/A,,Clear,330,2013-12-29 19:12:00
1:32 PM,2.7,-14.1,46,30.27,-9999.0,NNW,13.8,-,N/A,,Clear,330,2013-12-29 19:32:00
1:52 PM,3.2,-13.9,45,30.27,-9999.0,NW,12.7,16.1,N/A,,Clear,310,2013-12-29 19:52:00
2:12 PM,3.0,-15.0,43,30.27,-9999.0,NW,8.1,-,N/A,,Clear,320,2013-12-29 20:12:00
2:32 PM,3.2,-13.7,45,30.26,-9999.0,NW,10.4,-,N/A,,Clear,320,2013-12-29 20:32:00
2:52 PM,3.2,-14.4,44,30.27,-9999.0,NW,11.5,-,N/A,,Clear,310,2013-12-29 20:52:00
3:12 PM,3.6,-14.4,43,30.27,-9999.0,NW,11.5,-,N/A,,Clear,310,2013-12-29 21:12:00
3:32 PM,3.2,-15.0,43,30.27,-9999.0,NNW,9.2,-,N/A,,Clear,330,2013-12-29 21:32:00
3:52 PM,3.0,-14.3,45,30.27,-9999.0,NW,9.2,-,N/A,,Clear,310,2013-12-29 21:52:00
4:12 PM,2.3,-14.6,45,30.28,-9999.0,NW,8.1,-,N/A,,Clear,310,2013-12-29 22:12:00
4:32 PM,1.9,-14.3,47,30.28,-9999.0,WNW,6.9,-,N/A,,Clear,300,2013-12-29 22:32:00
4:52 PM,1.0,-14.4,48,30.28,-9999.0,West,9.2,-,N/A,,Clear,280,2013-12-29 22:52:00
5:12 PM,0.3,-14.8,49,30.28,-9999.0,WNW,4.6,-,N/A,,Clear,290,2013-12-29 23:12:00
5:32 PM,-0.0,-14.8,50,30.28,-9999.0,WNW,4.6,-,N/A,,Clear,290,2013-12-29 23:32:00
5:52 PM,-0.4,-14.6,51,30.27,-9999.0,WNW,3.5,-,N/A,,Clear,290,2013-12-29 23:52:00
6:12 PM,-0.8,-14.4,52,30.28,-9999.0,Calm,Calm,-,N/A,,Clear,0,2013-12-30 00:12:00
6:32 PM,-0.9,-15.0,52,30.28,-9999.0,NW,4.6,-,N/A,,Clear,310,2013-12-30 00:32:00
6:52 PM,-1.3,-15.2,52,30.28,-9999.0,NW,4.6,-,N/A,,Clear,310,2013-12-30 00:52:00
7:12 PM,-1.3,-14.8,53,30.29,-9999.0,West,3.5,-,N/A,,Clear,280,2013-12-30 01:12:00
7:32 PM,-1.8,-14.8,54,30.29,-9999.0,Calm,Calm,-,N/A,,Clear,0,2013-12-30 01:32:00
7:52 PM,-2.0,-15.3,53,30.28,-9999.0,WNW,3.5,-,N/A,,Clear,290,2013-12-30 01:52:00
8:12 PM,-2.2,-15.9,52,30.28,-9999.0,WNW,4.6,-,N/A,,Clear,290,2013-12-30 02:12:00
8:32 PM,-2.7,-15.3,55,30.28,-9999.0,Calm,Calm,-,N/A,,Clear,0,2013-12-30 02:32:00
8:52 PM,-3.5,-15.7,56,30.29,-9999.0,Calm,Calm,-,N/A,,Clear,0,2013-12-30 02:52:00
9:12 PM,-4.4,-16.6,56,30.29,-9999.0,West,3.5,-,N/A,,Clear,260,2013-12-30 03:12:00
9:32 PM,-4.9,-16.1,59,30.29,-9999.0,Calm,Calm,-,N/A,,Clear,0,2013-12-30 03:32:00
9:52 PM,-4.9,-16.2,58,30.29,-9999.0,Calm,Calm,-,N/A,,Clear,0,2013-12-30 03:52:00
10:12 PM,-5.4,-16.4,59,30.28,-9999.0,Calm,Calm,-,N/A,,Clear,0,2013-12-30 04:12:00
10:32 PM,-5.8,-16.6,60,30.29,-9999.0,Calm,Calm,-,N/A,,Clear,0,2013-12-30 04:32:00
10:52 PM,-5.3,-16.4,59,30.29,-9999.0,Calm,Calm,-,N/A,,Clear,0,2013-12-30 04:52:00
11:12 PM,-5.6,-16.4,60,30.29,-9999.0,Calm,Calm,-,N/A,,Clear,0,2013-12-30 05:12:00
11:32 PM,-6.7,-16.6,62,30.30,-9999.0,Calm,Calm,-,N/A,,Clear,0,2013-12-30 05:32:00
11:52 PM,-6.7,-16.1,64,30.29,-9999.0,Calm,Calm,-,N/A,,Clear,0,2013-12-30 05:52:00